ARG1657 SARI-SAEZ

Flight info

Callsign ARG1657
Flight time 1h 48m
Altitude 38000
Route NAIDE2C NAIDE UT667 GEMSU UN785 GUA UZ129 PAGON
Aircraft B38M/M-SDE1FGHILORVWXY/HB1

Departure

Time 2026-04-25 18:03
Airport Cataratas Del Iguazú International Airport (SARI)

Arrival

Time 2026-04-25 19:51
Airport Ezeiza International Airport - Ministro Pistarini (SAEZ)
Time Latitude Longitude Altitude Speed Heading
2026-04-25 17:17 -25.73211 -54.47710 929 ft 0 kts 26°
2026-04-25 17:55 -25.73213 -54.47710 929 ft 2 kts 26°
2026-04-25 17:55 -25.73237 -54.47719 929 ft 4 kts
2026-04-25 17:55 -25.73260 -54.47711 931 ft 4 kts 317°
2026-04-25 17:55 -25.73275 -54.47688 932 ft 4 kts 294°
2026-04-25 17:56 -25.73281 -54.47672 929 ft 0 kts 296°
2026-04-25 17:59 -25.73281 -54.47673 929 ft 1 kts 296°
2026-04-25 17:59 -25.73266 -54.47705 930 ft 9 kts 296°
2026-04-25 17:59 -25.73224 -54.47806 932 ft 19 kts 284°
2026-04-25 17:59 -25.73230 -54.47978 929 ft 24 kts 265°
2026-04-25 18:00 -25.73241 -54.48104 933 ft 25 kts 264°
2026-04-25 18:00 -25.73262 -54.48349 931 ft 23 kts 263°
2026-04-25 18:00 -25.73234 -54.48526 929 ft 21 kts 295°
2026-04-25 18:00 -25.73181 -54.48652 932 ft 19 kts 293°
2026-04-25 18:01 -25.73139 -54.48733 930 ft 18 kts 319°
2026-04-25 18:01 -25.73098 -54.48806 931 ft 9 kts 228°
2026-04-25 18:01 -25.73125 -54.48794 928 ft 4 kts 109°
2026-04-25 18:01 -25.73138 -54.48758 930 ft 6 kts 115°
2026-04-25 18:02 -25.73157 -54.48712 929 ft 8 kts 115°
2026-04-25 18:02 -25.73250 -54.48490 932 ft 72 kts 115°
2026-04-25 18:02 -25.73577 -54.47707 933 ft 149 kts 115°
2026-04-25 18:02 -25.74095 -54.46474 1205 ft 192 kts 115°
2026-04-25 18:03 -25.74686 -54.45106 2105 ft 201 kts 116°
2026-04-25 18:03 -25.75308 -54.43698 2984 ft 211 kts 115°
2026-04-25 18:03 -25.75973 -54.42189 3474 ft 226 kts 114°
2026-04-25 18:03 -25.76646 -54.40553 4017 ft 243 kts 115°
2026-04-25 18:04 -25.77604 -54.38938 4506 ft 258 kts 137°
2026-04-25 18:04 -25.79207 -54.37992 5013 ft 269 kts 172°
2026-04-25 18:04 -25.81095 -54.37996 5631 ft 277 kts 187°
2026-04-25 18:04 -25.83051 -54.37953 6337 ft 284 kts 177°
2026-04-25 18:05 -25.85035 -54.37775 7081 ft 288 kts 178°
2026-04-25 18:05 -25.87045 -54.37616 7837 ft 291 kts 178°
2026-04-25 18:05 -25.89081 -54.37467 8552 ft 295 kts 178°
2026-04-25 18:05 -25.91142 -54.37325 9273 ft 298 kts 178°
2026-04-25 18:06 -25.93227 -54.37185 9957 ft 302 kts 179°
2026-04-25 18:06 -25.95333 -54.37047 10709 ft 304 kts 179°
2026-04-25 18:06 -25.97472 -54.36908 11324 ft 314 kts 180°
2026-04-25 18:06 -25.99719 -54.36756 11695 ft 332 kts 180°
2026-04-25 18:07 -26.02034 -54.36600 12176 ft 344 kts 180°
2026-04-25 18:07 -26.04454 -54.36438 12747 ft 351 kts 180°
2026-04-25 18:07 -26.06908 -54.36279 13479 ft 355 kts 180°
2026-04-25 18:07 -26.09386 -54.36120 14187 ft 358 kts 181°
2026-04-25 18:08 -26.11878 -54.35961 14924 ft 361 kts 181°
2026-04-25 18:08 -26.14414 -54.35799 15620 ft 366 kts 181°
2026-04-25 18:08 -26.16967 -54.35636 16310 ft 369 kts 181°
2026-04-25 18:08 -26.19545 -54.35471 16968 ft 373 kts 181°
2026-04-25 18:09 -26.22146 -54.35305 17609 ft 377 kts 181°
2026-04-25 18:09 -26.24765 -54.35284 18211 ft 375 kts 193°
2026-04-25 18:09 -26.27255 -54.36041 18783 ft 372 kts 203°
2026-04-25 18:09 -26.28895 -54.36625 19134 ft 375 kts 202°
2026-04-25 18:10 -26.32229 -54.37812 19908 ft 378 kts 204°
2026-04-25 18:10 -26.34740 -54.38726 20484 ft 380 kts 204°
2026-04-25 18:10 -26.37261 -54.39656 21027 ft 382 kts 204°
2026-04-25 18:10 -26.39797 -54.40595 21538 ft 385 kts 205°
2026-04-25 18:11 -26.42344 -54.41541 22055 ft 387 kts 205°
2026-04-25 18:11 -26.44903 -54.42491 22560 ft 389 kts 205°
2026-04-25 18:11 -26.47480 -54.43450 23013 ft 390 kts 206°
2026-04-25 18:11 -26.50084 -54.44421 23494 ft 394 kts 206°
2026-04-25 18:12 -26.52644 -54.45373 23955 ft 395 kts 206°
2026-04-25 18:12 -26.55268 -54.46345 24302 ft 398 kts 206°
2026-04-25 18:12 -26.57905 -54.47329 24715 ft 401 kts 207°
2026-04-25 18:12 -26.60560 -54.48319 25106 ft 404 kts 206°
2026-04-25 18:13 -26.63232 -54.49315 25492 ft 406 kts 207°
2026-04-25 18:13 -26.65920 -54.50318 25921 ft 408 kts 207°
2026-04-25 18:13 -26.68629 -54.51329 26246 ft 412 kts 207°
2026-04-25 18:14 -26.73533 -54.54335 26912 ft 404 kts 220°
2026-04-25 18:14 -26.75922 -54.55984 27299 ft 402 kts 220°
2026-04-25 18:14 -26.78288 -54.57699 27520 ft 408 kts 221°
2026-04-25 18:14 -26.80675 -54.59427 27942 ft 408 kts 221°
2026-04-25 18:15 -26.83054 -54.61170 28243 ft 410 kts 221°
2026-04-25 18:15 -26.85460 -54.62919 28579 ft 413 kts 221°
2026-04-25 18:15 -26.87846 -54.64658 28917 ft 415 kts 221°
2026-04-25 18:15 -26.90271 -54.66428 29233 ft 417 kts 222°
2026-04-25 18:16 -26.92713 -54.68213 29509 ft 420 kts 222°
2026-04-25 18:16 -26.95163 -54.70004 29839 ft 421 kts 222°
2026-04-25 18:16 -27.00081 -54.73603 30492 ft 424 kts 222°
2026-04-25 18:17 -27.02550 -54.75411 30807 ft 425 kts 222°
2026-04-25 18:17 -27.05034 -54.77231 31064 ft 427 kts 222°
2026-04-25 18:17 -27.07526 -54.79059 31342 ft 428 kts 222°
2026-04-25 18:17 -27.10023 -54.80890 31634 ft 430 kts 222°
2026-04-25 18:18 -27.12531 -54.82731 31892 ft 431 kts 222°
2026-04-25 18:18 -27.15043 -54.84576 32185 ft 432 kts 222°
2026-04-25 18:18 -27.17558 -54.86423 32605 ft 430 kts 222°
2026-04-25 18:18 -27.20049 -54.88254 33053 ft 427 kts 222°
2026-04-25 18:19 -27.22498 -54.90056 33442 ft 425 kts 222°
2026-04-25 18:19 -27.24967 -54.91873 33861 ft 423 kts 222°
2026-04-25 18:19 -27.27423 -54.93682 34250 ft 421 kts 222°
2026-04-25 18:19 -27.29868 -54.95483 34621 ft 420 kts 222°
2026-04-25 18:20 -27.32293 -54.97297 34972 ft 415 kts 225°
2026-04-25 18:20 -27.34288 -54.99513 35327 ft 395 kts 242°
2026-04-25 18:20 -27.35654 -55.02156 35640 ft 389 kts 246°
2026-04-25 18:20 -27.36963 -55.04820 35897 ft 388 kts 246°
2026-04-25 18:21 -27.38231 -55.07494 36191 ft 387 kts 247°
2026-04-25 18:21 -27.39476 -55.10176 36458 ft 386 kts 247°
2026-04-25 18:21 -27.40707 -55.12866 36718 ft 385 kts 248°
2026-04-25 18:21 -27.41923 -55.15545 37016 ft 383 kts 248°
2026-04-25 18:22 -27.43125 -55.18204 37412 ft 378 kts 248°
2026-04-25 18:22 -27.43511 -55.19058 37536 ft 377 kts 248°
2026-04-25 18:22 -27.45487 -55.23444 37938 ft 375 kts 248°
2026-04-25 18:23 -27.47822 -55.28633 37932 ft 371 kts 248°
2026-04-25 18:23 -27.50153 -55.33816 37924 ft 371 kts 248°
2026-04-25 18:24 -27.52483 -55.39006 37926 ft 372 kts 248°
2026-04-25 18:24 -27.54810 -55.44197 37919 ft 370 kts 248°
2026-04-25 18:25 -27.57131 -55.49377 37919 ft 370 kts 248°
2026-04-25 18:25 -27.59445 -55.54550 37917 ft 369 kts 248°
2026-04-25 18:26 -27.62403 -55.59316 37905 ft 385 kts 226°
2026-04-25 18:26 -27.66832 -55.62818 37913 ft 393 kts 224°
2026-04-25 18:27 -27.71366 -55.66289 37918 ft 394 kts 223°
2026-04-25 18:27 -27.75919 -55.69722 37914 ft 393 kts 223°
2026-04-25 18:28 -27.80479 -55.73153 37923 ft 393 kts 223°
2026-04-25 18:28 -27.85035 -55.76583 37966 ft 393 kts 223°
2026-04-25 18:29 -27.91863 -55.81730 37968 ft 393 kts 223°
2026-04-25 18:30 -28.00922 -55.88571 37945 ft 392 kts 224°
2026-04-25 18:30 -28.05463 -55.92005 37946 ft 392 kts 224°
2026-04-25 18:31 -28.09998 -55.95439 37944 ft 392 kts 224°
2026-04-25 18:31 -28.14546 -55.98885 37945 ft 392 kts 224°
2026-04-25 18:32 -28.19084 -56.02328 37967 ft 392 kts 224°
2026-04-25 18:32 -28.23624 -56.05776 37962 ft 392 kts 224°
2026-04-25 18:33 -28.28121 -56.09195 37955 ft 392 kts 224°
2026-04-25 18:33 -28.32650 -56.12642 37964 ft 391 kts 224°
2026-04-25 18:34 -28.37165 -56.16081 37957 ft 391 kts 224°
2026-04-25 18:34 -28.41683 -56.19527 37966 ft 390 kts 224°
2026-04-25 18:35 -28.46192 -56.22969 37965 ft 390 kts 224°
2026-04-25 18:35 -28.50691 -56.26408 37967 ft 389 kts 224°
2026-04-25 18:36 -28.55182 -56.29843 37963 ft 388 kts 224°
2026-04-25 18:36 -28.59667 -56.33278 37956 ft 388 kts 224°
2026-04-25 18:37 -28.64109 -56.36683 37951 ft 387 kts 224°
2026-04-25 18:37 -28.68570 -56.40107 37968 ft 386 kts 225°
2026-04-25 18:38 -28.73022 -56.43527 37965 ft 385 kts 225°
2026-04-25 18:38 -28.77464 -56.46942 37966 ft 385 kts 225°
2026-04-25 18:39 -28.81902 -56.50358 37968 ft 385 kts 225°
2026-04-25 18:39 -28.86344 -56.53780 37963 ft 384 kts 225°
2026-04-25 18:40 -28.90774 -56.57200 37967 ft 384 kts 225°
2026-04-25 18:40 -28.95193 -56.60612 37976 ft 383 kts 225°
2026-04-25 18:41 -28.99573 -56.63999 37965 ft 382 kts 226°
2026-04-25 18:41 -29.03974 -56.67404 37971 ft 382 kts 226°
2026-04-25 18:42 -29.06918 -56.69685 37967 ft 381 kts 226°
2026-04-25 18:42 -29.12765 -56.74218 37963 ft 381 kts 226°
2026-04-25 18:43 -29.17148 -56.77621 37966 ft 380 kts 226°
2026-04-25 18:43 -29.21519 -56.81018 37963 ft 379 kts 226°
2026-04-25 18:44 -29.25899 -56.84427 37971 ft 381 kts 226°
2026-04-25 18:44 -29.30276 -56.87834 37967 ft 380 kts 226°
2026-04-25 18:45 -29.34646 -56.91241 37957 ft 379 kts 226°
2026-04-25 18:45 -29.39013 -56.94649 37967 ft 379 kts 226°
2026-04-25 18:46 -29.43338 -56.98028 37965 ft 378 kts 226°
2026-04-25 18:46 -29.47685 -57.01428 37965 ft 378 kts 226°
2026-04-25 18:47 -29.52039 -57.04836 37954 ft 378 kts 227°
2026-04-25 18:47 -29.56391 -57.08247 37948 ft 378 kts 227°
2026-04-25 18:48 -29.60726 -57.11648 37969 ft 377 kts 227°
2026-04-25 18:48 -29.65061 -57.15053 37961 ft 377 kts 227°
2026-04-25 18:49 -29.69387 -57.18454 37952 ft 377 kts 227°
2026-04-25 18:49 -29.73682 -57.21835 37957 ft 376 kts 227°
2026-04-25 18:50 -29.78002 -57.25237 37966 ft 376 kts 227°
2026-04-25 18:50 -29.82320 -57.28643 37969 ft 376 kts 227°
2026-04-25 18:51 -29.85203 -57.30919 37968 ft 376 kts 227°
2026-04-25 18:51 -29.90208 -57.34874 37956 ft 375 kts 227°
2026-04-25 18:52 -29.94509 -57.38276 37964 ft 375 kts 227°
2026-04-25 18:52 -29.98803 -57.41677 37973 ft 374 kts 227°
2026-04-25 18:53 -30.03094 -57.45080 37954 ft 374 kts 228°
2026-04-25 18:53 -30.07380 -57.48481 37963 ft 374 kts 228°
2026-04-25 18:54 -30.13804 -57.53586 37965 ft 373 kts 228°
2026-04-25 18:55 -30.18090 -57.56996 37968 ft 374 kts 228°
2026-04-25 18:55 -30.22373 -57.60407 37956 ft 374 kts 228°
2026-04-25 18:56 -30.26768 -57.63689 37952 ft 391 kts 217°
2026-04-25 18:56 -30.29385 -57.64661 37979 ft 405 kts 212°
2026-04-25 18:56 -30.32060 -57.65642 37969 ft 403 kts 213°
2026-04-25 18:57 -30.37443 -57.67573 37956 ft 405 kts 212°
2026-04-25 18:57 -30.42837 -57.69463 37961 ft 405 kts 212°
2026-04-25 18:58 -30.48229 -57.71345 37958 ft 405 kts 212°
2026-04-25 18:58 -30.56335 -57.74179 37954 ft 405 kts 212°
2026-04-25 18:59 -30.67142 -57.77963 37962 ft 406 kts 212°
2026-04-25 19:00 -30.75232 -57.80781 37962 ft 406 kts 212°
2026-04-25 19:01 -30.83355 -57.83613 37962 ft 406 kts 212°
2026-04-25 19:01 -30.88774 -57.85505 37958 ft 407 kts 211°
2026-04-25 19:02 -30.96913 -57.88351 37959 ft 407 kts 211°
2026-04-25 19:03 -31.04142 -57.90883 37952 ft 407 kts 211°
2026-04-25 19:03 -31.10492 -57.93111 37958 ft 408 kts 211°
2026-04-25 19:04 -31.18642 -57.95974 37968 ft 408 kts 211°
2026-04-25 19:05 -31.29478 -57.99789 37964 ft 409 kts 211°
2026-04-25 19:06 -31.34924 -58.01711 37966 ft 408 kts 211°
2026-04-25 19:06 -31.43094 -58.04597 37944 ft 408 kts 211°
2026-04-25 19:07 -31.51259 -58.07487 37940 ft 409 kts 211°
2026-04-25 19:08 -31.59426 -58.10382 37943 ft 409 kts 211°
2026-04-25 19:09 -31.69421 -58.13933 37942 ft 409 kts 211°
2026-04-25 19:10 -31.78478 -58.17158 37945 ft 409 kts 211°
2026-04-25 19:10 -31.83927 -58.19101 37942 ft 409 kts 211°
2026-04-25 19:11 -31.89381 -58.21048 37944 ft 409 kts 211°
2026-04-25 19:11 -31.94831 -58.22997 37943 ft 410 kts 211°
2026-04-25 19:12 -32.00284 -58.24949 37941 ft 410 kts 211°
2026-04-25 19:12 -32.05738 -58.26904 37945 ft 410 kts 211°
2026-04-25 19:13 -32.11195 -58.28862 37945 ft 410 kts 211°
2026-04-25 19:13 -32.16653 -58.30823 37946 ft 410 kts 211°
2026-04-25 19:14 -32.22067 -58.32770 37941 ft 410 kts 211°
2026-04-25 19:14 -32.27524 -58.34735 37938 ft 410 kts 211°
2026-04-25 19:15 -32.32989 -58.36706 37937 ft 410 kts 211°
2026-04-25 19:15 -32.38451 -58.38677 37944 ft 410 kts 211°
2026-04-25 19:16 -32.43903 -58.40648 37949 ft 410 kts 211°
2026-04-25 19:16 -32.49359 -58.42621 37945 ft 410 kts 211°
2026-04-25 19:17 -32.54780 -58.44585 37953 ft 410 kts 211°
2026-04-25 19:17 -32.60236 -58.46563 37956 ft 410 kts 211°
2026-04-25 19:18 -32.65704 -58.48548 37950 ft 410 kts 211°
2026-04-25 19:18 -32.71167 -58.50535 37962 ft 411 kts 211°
2026-04-25 19:19 -32.76631 -58.52524 37965 ft 411 kts 211°
2026-04-25 19:19 -32.82102 -58.54518 37960 ft 411 kts 211°
2026-04-25 19:20 -32.87569 -58.56514 37944 ft 412 kts 210°
2026-04-25 19:20 -32.90308 -58.57514 37732 ft 411 kts 211°
2026-04-25 19:20 -32.93037 -58.58512 37491 ft 410 kts 211°
2026-04-25 19:20 -32.95763 -58.59509 37257 ft 410 kts 211°
2026-04-25 19:21 -32.98501 -58.60511 37021 ft 411 kts 210°
2026-04-25 19:21 -33.04234 -58.61764 36444 ft 428 kts 199°
2026-04-25 19:21 -33.07167 -58.62114 35534 ft 431 kts 199°
2026-04-25 19:22 -33.10219 -58.62484 34669 ft 437 kts 199°
2026-04-25 19:22 -33.13199 -58.62829 34193 ft 433 kts 199°
2026-04-25 19:22 -33.19109 -58.63515 33280 ft 423 kts 199°
2026-04-25 19:23 -33.22033 -58.63854 32736 ft 420 kts 199°
2026-04-25 19:23 -33.27820 -58.64527 31701 ft 416 kts 198°
2026-04-25 19:23 -33.30697 -58.64861 31188 ft 413 kts 198°
2026-04-25 19:24 -33.33564 -58.65194 30680 ft 411 kts 198°
2026-04-25 19:24 -33.36399 -58.65525 30178 ft 409 kts 198°
2026-04-25 19:24 -33.42038 -58.66182 29175 ft 405 kts 198°
2026-04-25 19:25 -33.47631 -58.66834 28181 ft 401 kts 197°
2026-04-25 19:25 -33.50400 -58.67158 27691 ft 400 kts 197°
2026-04-25 19:25 -33.53165 -58.67481 27206 ft 398 kts 197°
2026-04-25 19:26 -33.55921 -58.67804 26720 ft 397 kts 197°
2026-04-25 19:26 -33.58626 -58.68119 26256 ft 395 kts 197°
2026-04-25 19:26 -33.61357 -58.68439 25788 ft 394 kts 197°
2026-04-25 19:26 -33.64079 -58.68757 25327 ft 391 kts 196°
2026-04-25 19:27 -33.66786 -58.69074 24858 ft 389 kts 196°
2026-04-25 19:27 -33.67689 -58.69180 24706 ft 388 kts 196°
2026-04-25 19:27 -33.72132 -58.69703 23972 ft 384 kts 195°
2026-04-25 19:27 -33.74786 -58.70015 23534 ft 383 kts 195°
2026-04-25 19:28 -33.77435 -58.70326 23098 ft 381 kts 195°
2026-04-25 19:28 -33.80068 -58.70636 22676 ft 379 kts 195°
2026-04-25 19:28 -33.82684 -58.70944 22251 ft 377 kts 194°
2026-04-25 19:28 -33.85300 -58.71251 21834 ft 376 kts 194°
2026-04-25 19:29 -33.87892 -58.71556 21410 ft 374 kts 194°
2026-04-25 19:29 -33.90470 -58.71861 21016 ft 371 kts 193°
2026-04-25 19:29 -33.93035 -58.72140 20569 ft 370 kts 193°
2026-04-25 19:29 -33.95539 -58.72394 20186 ft 368 kts 192°
2026-04-25 19:30 -33.98080 -58.72655 19796 ft 365 kts 192°
2026-04-25 19:30 -34.00600 -58.72916 19414 ft 362 kts 192°
2026-04-25 19:30 -34.03104 -58.73175 19025 ft 359 kts 191°
2026-04-25 19:30 -34.05588 -58.73431 18643 ft 357 kts 191°
2026-04-25 19:31 -34.08050 -58.73687 18259 ft 355 kts 190°
2026-04-25 19:31 -34.10473 -58.73937 17882 ft 352 kts 190°
2026-04-25 19:31 -34.12901 -58.74190 17498 ft 349 kts 190°
2026-04-25 19:31 -34.15315 -58.74441 17125 ft 347 kts 190°
2026-04-25 19:32 -34.17717 -58.74690 16754 ft 345 kts 190°
2026-04-25 19:32 -34.20095 -58.74937 16388 ft 342 kts 190°
2026-04-25 19:32 -34.22464 -58.75183 16020 ft 340 kts 189°
2026-04-25 19:32 -34.23258 -58.75266 15897 ft 339 kts 189°
2026-04-25 19:33 -34.27148 -58.75671 15280 ft 335 kts 189°
2026-04-25 19:33 -34.29471 -58.75913 14913 ft 334 kts 189°
2026-04-25 19:33 -34.31780 -58.76101 14524 ft 334 kts 182°
2026-04-25 19:33 -34.34069 -58.75500 14111 ft 341 kts 162°
2026-04-25 19:34 -34.36266 -58.74467 13792 ft 337 kts 164°
2026-04-25 19:34 -34.38453 -58.73496 13444 ft 334 kts 163°
2026-04-25 19:34 -34.40630 -58.72519 13094 ft 332 kts 163°
2026-04-25 19:34 -34.42765 -58.71557 12747 ft 330 kts 163°
2026-04-25 19:35 -34.44909 -58.70588 12386 ft 328 kts 163°
2026-04-25 19:35 -34.47070 -58.69609 12025 ft 326 kts 163°
2026-04-25 19:35 -34.49161 -58.68662 11679 ft 324 kts 163°
2026-04-25 19:35 -34.51260 -58.67711 11331 ft 321 kts 162°
2026-04-25 19:36 -34.53349 -58.66763 10976 ft 319 kts 162°
2026-04-25 19:36 -34.55422 -58.65823 10627 ft 317 kts 162°
2026-04-25 19:36 -34.57465 -58.64895 10461 ft 309 kts 162°
2026-04-25 19:36 -34.59446 -58.63996 10322 ft 300 kts 162°
2026-04-25 19:37 -34.61371 -58.63120 10176 ft 291 kts 162°
2026-04-25 19:37 -34.63237 -58.62273 10031 ft 283 kts 162°
2026-04-25 19:37 -34.64460 -58.61716 9841 ft 281 kts 162°
2026-04-25 19:37 -34.66289 -58.60884 9539 ft 280 kts 162°
2026-04-25 19:38 -34.68717 -58.59778 9126 ft 277 kts 162°
2026-04-25 19:38 -34.69915 -58.59232 8927 ft 276 kts 162°
2026-04-25 19:38 -34.71710 -58.58414 8632 ft 274 kts 162°
2026-04-25 19:38 -34.74062 -58.57341 8243 ft 272 kts 162°
2026-04-25 19:39 -34.75831 -58.56534 7947 ft 270 kts 161°
2026-04-25 19:39 -34.77025 -58.55990 7741 ft 269 kts 161°
2026-04-25 19:39 -34.78747 -58.55204 7455 ft 267 kts 161°
2026-04-25 19:39 -34.80482 -58.54412 7172 ft 265 kts 162°
2026-04-25 19:40 -34.82206 -58.53629 6890 ft 264 kts 163°
2026-04-25 19:40 -34.83968 -58.53006 6575 ft 262 kts 166°
2026-04-25 19:40 -34.85718 -58.52411 6308 ft 261 kts 166°
2026-04-25 19:40 -34.87465 -58.51807 6050 ft 259 kts 165°
2026-04-25 19:41 -34.89191 -58.51205 5779 ft 258 kts 166°
2026-04-25 19:41 -34.90910 -58.50603 5522 ft 256 kts 165°
2026-04-25 19:41 -34.92614 -58.50005 5249 ft 254 kts 165°
2026-04-25 19:41 -34.93734 -58.49609 5089 ft 253 kts 165°
2026-04-25 19:42 -34.96001 -58.48808 4715 ft 252 kts 165°
2026-04-25 19:42 -34.97679 -58.48219 4518 ft 248 kts 165°
2026-04-25 19:42 -34.99296 -58.47647 4441 ft 236 kts 165°
2026-04-25 19:42 -35.00849 -58.47099 4327 ft 228 kts 165°
2026-04-25 19:43 -35.02323 -58.46521 4193 ft 217 kts 155°
2026-04-25 19:43 -35.03337 -58.45271 4048 ft 208 kts 112°
2026-04-25 19:43 -35.03598 -58.43591 4015 ft 198 kts 102°
2026-04-25 19:43 -35.04202 -58.42128 3884 ft 193 kts 139°
2026-04-25 19:44 -35.05363 -58.41462 3799 ft 189 kts 176°
2026-04-25 19:44 -35.06611 -58.41831 3743 ft 188 kts 214°
2026-04-25 19:44 -35.07448 -58.43037 3732 ft 189 kts 243°
2026-04-25 19:44 -35.07651 -58.44630 3727 ft 191 kts 278°
2026-04-25 19:45 -35.07095 -58.46067 3728 ft 193 kts 311°
2026-04-25 19:45 -35.05971 -58.46937 3349 ft 198 kts 345°
2026-04-25 19:45 -35.04623 -58.47003 3118 ft 193 kts
2026-04-25 19:45 -35.03266 -58.47001 2799 ft 195 kts 358°
2026-04-25 19:46 -35.01908 -58.47040 2538 ft 194 kts 358°
2026-04-25 19:46 -35.00573 -58.47079 2298 ft 190 kts 358°
2026-04-25 19:46 -34.99252 -58.47121 2191 ft 189 kts 356°
2026-04-25 19:46 -34.97972 -58.47425 2159 ft 188 kts 342°
2026-04-25 19:47 -34.96743 -58.47858 2204 ft 180 kts 342°
2026-04-25 19:47 -34.95552 -58.48267 2165 ft 176 kts 342°
2026-04-25 19:47 -34.94377 -58.48667 2146 ft 175 kts 342°
2026-04-25 19:47 -34.93227 -58.49064 2148 ft 166 kts 342°
2026-04-25 19:48 -34.92144 -58.49447 1937 ft 159 kts 342°
2026-04-25 19:48 -34.91105 -58.49811 1697 ft 156 kts 341°
2026-04-25 19:48 -34.90059 -58.50177 1508 ft 154 kts 342°
2026-04-25 19:48 -34.89031 -58.50534 1273 ft 153 kts 341°
2026-04-25 19:49 -34.88025 -58.50889 1080 ft 152 kts 341°
2026-04-25 19:49 -34.87341 -58.51128 941 ft 151 kts 341°
2026-04-25 19:49 -34.85979 -58.51603 663 ft 155 kts 342°
2026-04-25 19:49 -34.84943 -58.51960 447 ft 154 kts 342°
2026-04-25 19:50 -34.82909 -58.52673 85 ft 135 kts 343°
2026-04-25 19:51 -34.81942 -58.53442 73 ft 14 kts 283°
2026-04-25 19:52 -34.81938 -58.53462 78 ft 2 kts 283°
2026-04-25 19:52 -34.81932 -58.53494 78 ft 0 kts 283°
2026-04-25 19:53 -34.81931 -58.53495 78 ft 1 kts 283°
2026-04-25 19:53 -34.81920 -58.53552 74 ft 13 kts 283°
2026-04-25 19:53 -34.81874 -58.53645 73 ft 14 kts 332°
2026-04-25 19:54 -34.81791 -58.53694 70 ft 13 kts 335°
2026-04-25 19:54 -34.81713 -58.53739 78 ft 6 kts 335°
2026-04-25 19:54 -34.81667 -58.53767 77 ft 9 kts 341°
2026-04-25 19:54 -34.81625 -58.53773 77 ft 10 kts 343°
2026-04-25 19:55 -34.81540 -58.53795 69 ft 8 kts 353°
2026-04-25 19:55 -34.81504 -58.53800 70 ft 3 kts 353°
2026-04-25 19:55 -34.81500 -58.53801 77 ft 0 kts 353°